Location: Malanoce
(44.2500°N, 7.4667°E)
Time: 06:04:00
(UTC+00:00)

SAR-Lupe-4 - Pass Details

Date: 17 November 2025
Orbit: 476 x 483 km, 98.1° (Epoch: 03 October)

Event Time Altitude Azimuth Distance (km) Brightness Sun altitude
Rises 16:39:23 0° 155° (SSE) 2,533 7.2 -7.1°
Reaches altitude 10° 16:41:27 10° 151° (SSE) 1,658 6.2 -7.5°
Maximum altitude 16:44:56 55° 73° (ENE) 588 3.6 -8.0°
Drops below altitude 10° 16:48:27 10° 356° (N) 1,669 6.1 -8.6°
Sets 16:50:32 0° 352° (N) 2,552 7.1 -9.0°
